This demonstration page uses our WeatherBlox Daily Observations layout. Learn more.

Left ArrowRight Arrow

39.51506, -84.39828

Hourly Observations for April 1, 2016

Temp ( °F °C ) Dew Point ( °F °C ) Humidity (%) Winds ( mph kmh ) Pressure ( in mb ) Visibility ( mi km ) Precip ( " mm )
12:15 am 00:15 Cloudy 60 15.3 56 13.2 87 87 WSW 7 11 29.62 1003 10 16 N/A
12:35 am 00:35 Cloudy 60 15.3 55 13 86 86 W 5 7 29.62 1003 10 16 N/A
12:55 am 00:55 Cloudy 60 15.3 55 13 86 86 WSW 5 7 29.62 1003 10 16 N/A
1:15 am 01:15 Cloudy 60 15.3 56 13.2 87 87 SSW 5 7 29.62 1003 10 16 N/A
1:35 am 01:35 Cloudy 60 15.3 56 13.2 87 87 WSW 3 6 29.65 1004 10 16 N/A
1:55 am 01:55 Cloudy 60 15.3 56 13.3 88 88 SW 14 22 29.68 1005 10 16 N/A
2:15 am 02:15 Cloudy with Light Rain 60 15.3 55 13 86 86 SW 7 11 29.65 1004 10 16 N/A
2:35 am 02:35 Cloudy 57 14.1 53 11.7 86 86 WNW 5 7 29.65 1004 10 16 N/A
2:55 am 02:55 Mostly Cloudy 57 13.8 53 11.5 86 86 WNW 3 6 29.65 1004 10 16 N/A
3:15 am 03:15 Mostly Cloudy 57 13.8 53 11.8 88 88 WNW 5 7 29.65 1004 10 16 N/A
3:35 am 03:35 Cloudy 57 13.8 52 11.2 84 84 WNW 7 11 29.65 1004 10 16 N/A
3:55 am 03:55 Cloudy 57 13.8 52 11 83 83 WNW 7 11 29.65 1004 10 16 N/A
4:20 am 04:20 Cloudy with Light Rain 55 12.5 49 9.4 82 82 WNW 8 13 29.68 1005 7 11 N/A
4:35 am 04:35 Cloudy with Light Rain 55 12.5 49 9.5 82 82 WNW 6 9 29.65 1004 10 16 N/A
4:55 am 04:55 Mostly Cloudy 55 12.5 49 9.5 82 82 W 8 13 29.68 1005 10 16 N/A
5:15 am 05:15 Mostly Cloudy 55 12.5 47 8.6 77 77 WNW 10 17 29.68 1005 10 16 N/A
5:35 am 05:35 Partly Cloudy 52 11 44 6.5 74 74 NW 10 17 29.71 1006 10 16 N/A
5:55 am 05:55 Clear 49 9.6 42 5.5 76 76 WNW 8 13 29.71 1006 10 16 N/A
6:15 am 06:15 Clear 49 9.6 42 5.5 76 76 WNW 6 9 29.71 1006 10 16 N/A
6:55 am 06:55 Clear 47 8.2 42 5.8 85 85 WSW 3 6 29.74 1007 10 16 N/A
7:15 am 07:15 Clear 45 7.2 42 5.3 88 88 N N/A 29.74 1007 10 16 N/A
7:35 am 07:35 Sunny 44 6.4 40 4.7 89 89 N N/A 29.74 1007 10 16 N/A
7:55 am 07:55 Sunny 44 6.5 41 4.8 89 89 N N/A 29.74 1007 10 16 N/A
8:15 am 08:15 Partly Cloudy 46 8 43 6.3 89 89 N N/A 29.77 1008 10 16 N/A
8:35 am 08:35 Partly Cloudy 49 9.6 46 8 90 90 N N/A 29.77 1008 10 16 N/A
8:55 am 08:55 Sunny 51 10.8 45 7.1 78 78 W 5 7 29.77 1008 10 16 N/A
9:15 am 09:15 Sunny 55 12.5 46 7.5 72 72 W 8 13 29.77 1008 10 16 N/A
9:35 am 09:35 Sunny 55 12.5 43 6.3 66 66 WSW 8 13 29.77 1008 10 16 N/A
9:55 am 09:55 Sunny 55 12.5 42 5.5 63 63 W 9 15 29.77 1008 10 16 N/A
10:15 am 10:15 Sunny 55 12.5 40 4.6 59 59 WSW 14 22 29.77 1008 10 16 N/A
10:35 am 10:35 Sunny 56 13.4 41 4.8 56 56 W 13 20 29.77 1008 10 16 N/A
10:55 am 10:55 Sunny 57 13.7 41 4.8 55 55 W 9 15 29.77 1008 10 16 N/A
11:15 am 11:15 Sunny 57 13.8 39 3.8 51 51 W 8 13 29.77 1008 10 16 N/A
11:35 am 11:35 Sunny 58 14.5 40 4.2 50 50 W 12 19 29.74 1007 10 16 N/A
11:55 am 11:55 Sunny 60 15.3 39 3.9 47 47 WSW 13 20 29.77 1008 10 16 N/A
12:15 pm 12:15 Sunny 60 15.3 36 2.1 41 41 WSW 16 26 29.77 1008 10 16 N/A
12:35 pm 12:35 Sunny 61 15.9 35 1.4 38 38 SW 20 31 29.74 1007 10 16 N/A
12:55 pm 12:55 Partly Cloudy 60 15.6 35 1.6 39 39 WSW 13 20 29.74 1007 10 16 N/A
1:15 pm 13:15 Partly Cloudy 62 16.5 35 1.8 37 37 W 20 31 29.77 1008 10 16 N/A
1:35 pm 13:35 Mostly Cloudy 62 16.9 35 1.7 36 36 WSW 22 35 29.74 1007 10 16 N/A
1:55 pm 13:55 Partly Cloudy 62 16.6 33 0.8 35 35 WSW 20 31 29.74 1007 10 16 N/A
2:15 pm 14:15 Mostly Cloudy 61 16.2 33 0.4 34 34 WSW 23 37 29.74 1007 10 16 N/A
2:35 pm 14:35 Cloudy 61 16 35 1.9 39 39 W 16 26 29.74 1007 10 16 N/A
2:55 pm 14:55 Cloudy 60 15.3 36 2.3 42 42 W 16 26 29.74 1007 10 16 N/A
3:15 pm 15:15 Mostly Cloudy 62 16.4 35 1.9 38 38 WSW 22 35 29.74 1007 10 16 N/A
3:35 pm 15:35 Mostly Cloudy 62 16.7 32 undefined 32 32 WSW 25 41 29.74 1007 10 16 N/A
3:55 pm 15:55 Mostly Cloudy 62 16.8 32 0.2 33 33 W 16 26 29.74 1007 10 16 N/A
4:15 pm 16:15 Partly Cloudy 61 16.3 33 0.7 35 35 W 16 26 29.77 1008 10 16 N/A
4:35 pm 16:35 Partly Cloudy 60 15.8 35 1.5 38 38 W 15 24 29.77 1008 10 16 N/A
4:55 pm 16:55 Partly Cloudy 60 15.3 32 0.2 36 36 W 16 26 29.80 1009 10 16 N/A
5:15 pm 17:15 Partly Cloudy 60 15.4 31 -0.5 34 34 WNW 20 31 29.80 1009 10 16 N/A
5:35 pm 17:35 Sunny 58 14.4 32 -0.1 37 37 WNW 20 31 29.80 1009 10 16 N/A
5:55 pm 17:55 Sunny 59 15 32 -0.2 36 36 W 16 26 29.80 1009 10 16 N/A
6:15 pm 18:15 Sunny 57 13.8 29 -1.5 35 35 NW 18 30 29.80 1009 10 16 N/A
6:35 pm 18:35 Sunny 57 13.8 30 -1.2 36 36 W 14 22 29.80 1009 10 16 N/A
6:55 pm 18:55 Sunny 55 12.5 29 -1.8 37 37 W 10 17 29.83 1010 10 16 N/A
7:15 pm 19:15 Sunny 55 12.5 30 -1.1 39 39 W 9 15 29.83 1010 10 16 N/A
7:35 pm 19:35 Sunny 55 12.5 31 -0.4 41 41 WNW 12 19 29.85 1011 10 16 N/A
7:55 pm 19:55 Mostly Cloudy 62 16.6 55 12.6 77 77 SW 6 9 29.59 1002 10 16 N/A
8:15 pm 20:15 Clear 52 11 32 undefined 47 47 WNW 8 13 29.85 1011 10 16 N/A
8:35 pm 20:35 Clear 52 11 32 undefined 47 47 WNW 8 13 29.85 1011 10 16 N/A
8:55 pm 20:55 Clear 50 10.1 32 -0.1 49 49 W 5 7 29.85 1011 10 16 N/A
9:15 pm 21:15 Partly Cloudy 49 9.6 32 -0.1 51 51 W 5 7 29.85 1011 10 16 N/A
9:35 pm 21:35 Clear 49 9.6 32 undefined 52 52 W 5 7 29.85 1011 10 16 N/A
9:55 pm 21:55 Clear 49 9.6 34 1 55 55 W 6 9 29.85 1011 10 16 N/A
10:15 pm 22:15 Clear 49 9.6 35 1.5 57 57 W 6 9 29.85 1011 10 16 N/A
10:35 pm 22:35 Partly Cloudy 49 9.6 35 1.7 58 58 WNW 5 7 29.85 1011 10 16 N/A
10:55 pm 22:55 Partly Cloudy 49 9.6 35 1.9 59 59 W 6 9 29.85 1011 10 16 N/A
11:15 pm 23:15 Partly Cloudy 48 9 35 1.8 61 61 W 6 9 29.85 1011 10 16 N/A
11:35 pm 23:35 Partly Cloudy 49 9.6 35 1.5 57 57 W 5 7 29.85 1011 10 16 N/A
11:55 pm 23:55 Clear 49 9.4 36 2 60 60 W 6 9 29.85 1011 10 16 N/A

Powered by AerisWeather